Location: Cahas Mountain Overlook
(37.0833°N, 80.1000°W)
Time: 01:30:32
(UTC-05:00)

A-11 Canister half - Pass Details

Date: 08 December 2023
Orbit: 1512 x 1687 km, 47.2° (Epoch: 01 March)

Event Time Altitude Azimuth Distance (km) Brightness Sun altitude
Exits shadow 02:01:42 15° 61° (ENE) 3,525 11.1 -62.4°
Drops below altitude 10° 02:03:03 10° 64° (ENE) 3,911 11.4 -62.1°
Sets 02:06:26 0° 71° (ENE) 4,916 12.1 -61.5°
